1998-067JK

Last updated on May 29, 2016, 9:36 a.m. UTC

1 41489U 98067JK  16150.18488480  .00019676  00000-0  28607-3 0  9995
2 41489  51.6417 152.7543 0000790  22.3894  53.8281 15.55771469   909

Satellite is not in orbit.